Location: El Gallo
(32.4380°N, 116.9347°W)
Time: 20:12:39
(UTC+00:00)

Cosmos 192 - Pass Details

Date: 01 October 2022
Orbit: 701 x 711 km, 74.0° (Epoch: 01 December)

Event Time Altitude Azimuth Distance (km) Brightness Sun altitude
Rises 12:23:29 0° 195° (SSW) 3,093 7.4 -17.3°
Reaches altitude 10° 12:25:48 10° 195° (SSW) 2,178 6.6 -16.9°
Maximum altitude 12:30:43 89° 105° (ESE) 716 4.3 -15.8°
Drops below altitude 10° 12:35:41 10° 17° (NNE) 2,190 7.2 -14.8°
Sets 12:38:01 0° 17° (NNE) 3,112 8.0 -14.3°
